TimeAEST,TemperatureF,Dew PointF,Humidity,Sea Level PressureIn,VisibilityMPH,Wind Direction,Wind SpeedMPH,Gust SpeedMPH,PrecipitationIn,Events,Conditions,WindDirDegrees,DateUTC
12:00 AM,79,74,81,29.77,,SE,12.7,,,,,130,2013-02-25 14:00:00
12:00 AM,78.8,73.4,83,29.77,-9999.0,SE,12.7,-,N/A,,Unknown,130,2013-02-25 14:00:00
12:30 AM,78.8,73.4,83,29.77,-9999.0,SE,13.8,-,N/A,,Unknown,130,2013-02-25 14:30:00
1:00 AM,78.8,75.2,89,29.74,-9999.0,SE,13.8,-,N/A,,Unknown,140,2013-02-25 15:00:00
1:30 AM,78.8,73.4,83,29.74,-9999.0,SE,15.0,-,N/A,,Unknown,140,2013-02-25 15:30:00
2:00 AM,78.8,75.2,89,29.71,-9999.0,SE,15.0,-,N/A,,Unknown,140,2013-02-25 16:00:00
2:30 AM,78.8,73.4,83,29.71,-9999.0,SE,15.0,-,N/A,,Unknown,140,2013-02-25 16:30:00
3:00 AM,79,73,78,29.71,,SE,13.8,,,,,140,2013-02-25 17:00:00
3:00 AM,78.8,73.4,83,29.71,-9999.0,SE,13.8,-,N/A,,Unknown,140,2013-02-25 17:00:00
3:30 AM,78.8,75.2,89,29.71,-9999.0,SE,17.3,-,N/A,,Unknown,140,2013-02-25 17:30:00
4:00 AM,78.8,75.2,89,29.71,-9999.0,SSE,16.1,-,N/A,,Unknown,150,2013-02-25 18:00:00
4:30 AM,77.0,77.0,100,29.71,-9999.0,SSE,16.1,-,N/A,,Unknown,160,2013-02-25 18:30:00
5:00 AM,77.0,77.0,100,29.71,-9999.0,South,17.3,-,N/A,,Unknown,170,2013-02-25 19:00:00
5:30 AM,77.0,73.4,89,29.71,-9999.0,SSE,15.0,-,N/A,,Unknown,160,2013-02-25 19:30:00
6:00 AM,78,76,92,29.72,,SSE,15.0,,,,,160,2013-02-25 20:00:00
6:00 AM,78.8,77.0,94,29.71,-9999.0,SSE,15.0,-,N/A,,Unknown,160,2013-02-25 20:00:00
6:30 AM,78.8,75.2,89,29.74,-9999.0,SSE,19.6,-,N/A,,Unknown,160,2013-02-25 20:30:00
7:00 AM,77.0,75.2,94,29.74,-9999.0,South,18.4,-,N/A,,Unknown,170,2013-02-25 21:00:00
7:30 AM,78.8,75.2,89,29.74,-9999.0,SSE,18.4,-,N/A,,Unknown,160,2013-02-25 21:30:00
8:00 AM,78.8,75.2,89,29.74,-9999.0,SSE,23.0,-,N/A,,Unknown,150,2013-02-25 22:00:00
8:30 AM,78.8,75.2,89,29.74,-9999.0,SSE,23.0,-,N/A,,Unknown,160,2013-02-25 22:30:00
9:00 AM,80,76,86,29.75,,SSE,17.3,,,,,160,2013-02-25 23:00:00
9:00 AM,80.6,77.0,89,29.74,-9999.0,SSE,17.3,-,N/A,,Unknown,160,2013-02-25 23:00:00
9:30 AM,80.6,77.0,89,29.74,-9999.0,SSE,17.3,-,N/A,,Unknown,160,2013-02-25 23:30:00
10:00 AM,82.4,77.0,84,29.74,-9999.0,South,15.0,-,N/A,,Unknown,180,2013-02-26 00:00:00
10:30 AM,80.6,75.2,84,29.74,-9999.0,SSE,19.6,-,N/A,,Unknown,150,2013-02-26 00:30:00
11:00 AM,82.4,77.0,84,29.74,-9999.0,SSE,17.3,-,N/A,,Unknown,160,2013-02-26 01:00:00
11:30 AM,82.4,77.0,84,29.74,-9999.0,SSE,20.7,-,N/A,,Unknown,150,2013-02-26 01:30:00
12:00 PM,81,77,84,29.72,,SSE,25.3,,,,,150,2013-02-26 02:00:00
12:00 PM,80.6,77.0,89,29.71,-9999.0,SSE,25.3,-,N/A,,Unknown,150,2013-02-26 02:00:00
12:30 PM,80.6,75.2,84,29.71,-9999.0,SSE,24.2,-,N/A,,Unknown,160,2013-02-26 02:30:00
1:00 PM,80.6,77.0,89,29.68,-9999.0,SSE,21.9,-,N/A,,Unknown,160,2013-02-26 03:00:00
1:30 PM,80.6,75.2,84,29.68,-9999.0,SSE,23.0,-,N/A,,Unknown,150,2013-02-26 03:30:00
2:00 PM,80.6,77.0,89,29.65,-9999.0,SSE,25.3,-,N/A,,Unknown,150,2013-02-26 04:00:00
2:30 PM,80.6,77.0,89,29.65,-9999.0,SSE,25.3,-,N/A,,Unknown,150,2013-02-26 04:30:00
3:00 PM,80,75,81,29.65,,SSE,28.8,,,,,150,2013-02-26 05:00:00
3:00 PM,80.6,75.2,84,29.65,-9999.0,SSE,28.8,-,N/A,,Unknown,150,2013-02-26 05:00:00
3:30 PM,78.8,77.0,94,29.65,-9999.0,SE,29.9,-,N/A,,Unknown,140,2013-02-26 05:30:00
4:00 PM,78.8,77.0,94,29.65,-9999.0,SSE,25.3,-,N/A,,Unknown,160,2013-02-26 06:00:00
4:30 PM,77.0,77.0,100,29.62,-9999.0,South,24.2,-,N/A,,Unknown,170,2013-02-26 06:30:00
5:00 PM,77.0,77.0,100,29.62,-9999.0,South,24.2,-,N/A,,Unknown,170,2013-02-26 07:00:00
5:35 PM,77.0,77.0,100,29.62,-9999.0,South,21.9,33.4,N/A,,Unknown,170,2013-02-26 07:35:00
6:00 PM,77,,,29.63,,South,26.5,,,,,180,2013-02-26 08:00:00
6:00 PM,77.0,77.0,100,29.62,-9999.0,South,26.5,-,N/A,,Unknown,180,2013-02-26 08:00:00
6:13 PM,77.0,77.0,100,29.62,-9999.0,South,21.9,33.4,N/A,,Unknown,180,2013-02-26 08:13:00
6:35 PM,77.0,77.0,100,29.62,-9999.0,South,18.4,34.5,N/A,,Unknown,180,2013-02-26 08:35:00
7:00 PM,77.0,77.0,100,29.62,-9999.0,South,24.2,39.1,N/A,,Unknown,180,2013-02-26 09:00:00
7:30 PM,77.0,77.0,100,29.62,-9999.0,South,16.1,28.8,N/A,,Unknown,190,2013-02-26 09:30:00
8:00 PM,-9999,-9999,N/A,29.62,-9999.0,SE,20.7,-,N/A,,Unknown,140,2013-02-26 10:00:00
8:30 PM,-9999,-9999,N/A,29.62,-9999.0,SSE,17.3,-,N/A,,Unknown,150,2013-02-26 10:30:00
9:00 PM,78,,,29.62,,SE,20.7,,,,,130,2013-02-26 11:00:00
9:00 PM,-9999,-9999,N/A,29.62,-9999.0,SE,20.7,-,N/A,,Unknown,130,2013-02-26 11:00:00
9:23 PM,-9999,-9999,N/A,29.62,-9999.0,SE,18.4,31.1,N/A,,Unknown,130,2013-02-26 11:23:00
9:30 PM,-9999,-9999,N/A,29.59,-9999.0,SE,32.2,-,N/A,,Unknown,130,2013-02-26 11:30:00
9:47 PM,77.0,77.0,100,29.59,-9999.0,SE,39.1,50.6,N/A,,Unknown,140,2013-02-26 11:47:00
10:00 PM,-9999,-9999,N/A,29.62,-9999.0,SE,39.1,-,N/A,,Unknown,140,2013-02-26 12:00:00
10:38 PM,-9999,-9999,N/A,29.59,-9999.0,ESE,26.5,42.6,N/A,,Unknown,110,2013-02-26 12:38:00
10:57 PM,78.8,78.8,100,29.62,-9999.0,ENE,25.3,-,N/A,,Unknown,70,2013-02-26 12:57:00
11:00 PM,78.8,78.8,100,29.62,-9999.0,East,23.0,-,N/A,,Unknown,80,2013-02-26 13:00:00
11:30 PM,78.8,78.8,100,29.62,-9999.0,East,17.3,-,N/A,,Unknown,80,2013-02-26 13:30:00